Showing default

YUNHAI 3, 54235

Orbit data source: Space-Track

YUNHAI 3, 54235 is a payload satellite owned by SAST (CN) in SSO that was launched on Fri, 11 Nov 2022 UTC via a CHANG ZHENG 6A launch vehicle from the Taiyaun Space Center, China (TSC). Payload-class satellites include a variety of spacecraft equipped with specific instruments for various scientific and technological missions. These include communications satellites like Starlink; space stations such as the ISS; scientific satellites like the Hubble; Earth observation satellites from companies like Planet Labs, Umbra, and HawkEye 360; GPS; miniature CubeSats for education and research; and military/defense satellites.

Loading next visibility...
Identifier
54235, 2022-151A
Orbit
SSO
Country
Flag of CNCN / PRC
Related business
Manufacturer
SAST
Mission
Operational Defense Weather
Bus & Motor
SAST-3000, Unknown motor
Mass
~1,500 kg wet, ~1,300 kg dry
Launch date (UTC)
2022-11-11 (3 years ago)
Launch vehicle
CHANG ZHENG 6A
Launch site
Taiyaun Space Center, China (TSC)
Object type
Payload
Rocket body
Debris
Shape & HBR
Box + 2 Pan, 2.0 m
Radar Cross Section
5.141 m², Large (>1 m²)

Expand to show TLE details & history
Last TLE update: 13 hours ago

TLE from 13 hours ago
0 YUNHAI 3
1 54235U 22151A   25350.00348075  .00000043  00000-0  46164-4 0  9994
2 54235  98.8191 355.0031 0000282 189.6984 170.4183 14.13420174159063
Epoch: 2025-12-16T00:05Z
TLE epoch observation values (Epoch: 2025-12-16T00:05:00.736Z)
Latitude
-0.00005°
Longitude
-91.14389°
Altitude
850.794 km
Speed
7.427 km/s
True Right ascension
23h 40m 00s
True Declination
0° 00' 00"
Sunlit
Object was in daylight at epoch
Visualization orbit readout
Latitude
Unknown
Longitude
Unknown
Altitude
Unknown
Speed
Unknown
Apparent Right ascension
Unknown
Apparent Declination
Unknown
Sunlit
N/A
Visualization observer readout
Local Sidereal Time
11:37:55
Azimuth
Unknown
Elevation
Unknown
Doppler factor
Unknown
Orbital elements
Apogee altitude
845.068 km
Perigee altitude
844.66 km
Semi-major axis
7,223.001 km
Eccentricity
0.00003
Inclination
98.8191°
RAAN
355.0031°
Arg. of periapsis
189.6984°
True anomaly
170.41884°
Mean anomaly
170.4183°
Eccentric anomaly
170.41857°
Mean motion
3.53563 °/min
Orbital period
101.82 mins
BSTAR
0.000046164
Loading maneuver chart data...
Computing Atmospheric mass density...
Loading historical data...
Loading historical data...
Loading historical data...
Loading historical data...
Loading historical data...
Loading historical data...
Loading historical data...

Documentation

Showing up to 5 results
|